Location: Warwick
(41.7000°N, 71.4170°W)
Time: 22:19:36
(UTC-04:00)

BREEZE-M DEB (TANK) - Visible Passes

Search period start: 04 August 2015 00:00
Search period end: 14 August 2015 00:00
Orbit: 316 x 15932 km, 49.5° (Epoch: 02 August)

Date Brightness Start Highest point End Pass type
(mag) Time Alt. Az. Time Alt. Az. Time Alt. Az.
06 Aug 7.5 03:09:56 10° SSE 03:13:27 11° SE 03:18:29 10° SE visible
07 Aug 7.3 03:14:03 10° SSE 03:23:16 13° SE 03:30:20 10° ESE visible
08 Aug 7.2 03:19:58 10° S 03:32:58 16° SE 03:40:38 10° ESE visible
09 Aug 7.1 03:26:41 10° S 03:42:33 18° SE 03:50:22 10° ESE visible
10 Aug 7.0 03:33:58 10° S 03:52:03 21° SSE 03:59:46 10° E visible
11 Aug 6.8 03:41:40 10° S 04:01:26 24° SSE 04:08:56 10° E visible
12 Aug 6.6 03:49:43 10° S 04:10:45 27° SSE 04:17:57 10° E visible
13 Aug 6.3 03:58:04 10° SSW 04:19:58 30° SSE 04:26:51 10° E visible
